Location: Beuerbach
(48.1459°N, 10.9174°E)
Time: 22:00:51
(UTC+00:00)

SL-27 R/B - Pass Details

Date: 23 May 2024
Orbit: 330 x 354 km, 74.7° (Epoch: 14 June)

Event Time Altitude Azimuth Distance (km) Brightness Sun altitude
Exits shadow 02:43:21 - 245° (WSW) 1,368 4.2 -6.7°
Reaches altitude 10° 02:43:40 10° 249° (WSW) 1,265 4.1 -6.7°
Maximum altitude 02:45:48 20° 300° (WNW) 847 3.6 -6.4°
Drops below altitude 10° 02:47:57 10° 351° (N) 1,271 5.2 -6.1°
Sets 02:50:13 0° 10° (N) 2,113 6.7 -5.8°
